Weather History for PACV - October, 2012

Change the Weather History Date:

Sunday, October 7, 2012

  Actual Average Record
Temperature  
Mean Temperature 46 °F -  
Max Temperature 50 °F 49 °F - (-1)
Min Temperature 42 °F 36 °F - (-1)
Degree Days  
Heating Degree Days 19    
Moisture  
Dew Point 45 °F    
Average Humidity 95    
Maximum Humidity 100    
Minimum Humidity 87    
Precipitation  
Precipitation 0.09 in - - ()
Sea Level Pressure  
Sea Level Pressure 30.36 in    
Wind  
Wind Speed 0 mph (NNE)    
Max Wind Speed 4 mph    
Max Gust Speed -    
Visibility 5 miles    
Events Fog , Rain    
Averages and records for this station are not official NWS values.
T = Trace of Precipitation, MM = Missing Value Source: NWS Daily Summary

Daily Weather History Graph

Daily Weather History Graph

Search for Another Location

Airport or City:

Trip Planner

Search our weather history database for the weather conditions in past years. The results will help you decide how hot, cold, wet, or windy it might be!

Date:

Astronomy

Oct. 07, 2012 Rise Set
Actual Time 8:04 AM AKDT 6:53 PM AKDT
Civil Twilight 7:21 AM AKDT 7:35 PM AKDT
Nautical Twilight 6:32 AM AKDT 8:24 PM AKDT
Astronomical Twilight 5:42 AM AKDT 9:14 PM AKDT
Moon 11:10 PM AKDT 3:54 PM AKDT
Length of Visible Light 12h 13m
Length of Day
10h 49m
Waning Gibbous, 55% of the Moon is Illuminated
Oct 7
Waning Gibbous
Oct 7
Last Quarter
Oct 15
New
Oct 21
First Quarter
Oct 29
Full

Hourly Weather History & Observations

Time (AKDT) Temp. Windchill Dew Point Humidity Pressure Visibility Wind Dir Wind Speed Gust Speed Precip Events Conditions
12:46 AM 46.4 °F - 44.6 °F 93% 30.39 in 10.0 mi Calm Calm - N/A   Overcast
12:53 AM 46.0 °F - 45.0 °F 96% 30.39 in 10.0 mi Calm Calm - N/A   Overcast
1:02 AM 46.4 °F - 44.6 °F 93% 30.39 in 10.0 mi Calm Calm - N/A   Overcast
1:53 AM 46.0 °F - 44.1 °F 93% 30.39 in 10.0 mi Calm Calm - 0.01 in Rain Light Rain
2:40 AM 46.4 °F - 44.6 °F 93% 30.39 in 10.0 mi Calm Calm - 0.00 in   Overcast
2:53 AM 46.0 °F - 45.0 °F 96% 30.39 in 10.0 mi Calm Calm - 0.00 in Rain Light Rain
3:53 AM 45.0 °F - 44.1 °F 97% 30.38 in 10.0 mi Calm Calm - 0.00 in   Overcast
4:53 AM 45.0 °F - 44.1 °F 97% 30.38 in 10.0 mi Calm Calm - 0.00 in   Overcast
5:53 AM 45.0 °F - 43.0 °F 93% 30.39 in 10.0 mi Calm Calm - N/A   Overcast
6:53 AM 45.0 °F - 44.1 °F 97% 30.37 in 10.0 mi Calm Calm - 0.01 in   Overcast
7:53 AM 45.0 °F - 44.1 °F 97% 30.38 in 7.0 mi Calm Calm - 0.00 in Rain Light Rain
8:39 AM 44.6 °F - 42.8 °F 93% 30.38 in 2.5 mi Calm Calm - 0.02 in Rain Light Rain
8:46 AM 44.6 °F - 42.8 °F 93% 30.39 in 3.0 mi Calm Calm - 0.02 in Rain Light Rain
8:53 AM 44.1 °F - 43.0 °F 96% 30.38 in 3.0 mi Calm Calm - 0.02 in Rain Light Rain
9:03 AM 44.6 °F - 42.8 °F 93% 30.38 in 2.5 mi Calm Calm - 0.00 in Rain Light Rain
9:18 AM 44.6 °F - 44.6 °F 100% 30.38 in 5.0 mi Calm Calm - 0.01 in Rain Light Rain
9:53 AM 45.0 °F 43.5 °F 43.0 °F 93% 30.39 in 10.0 mi NE 3.5 mph - 0.01 in   Overcast
10:38 AM 46.4 °F 45.2 °F 44.6 °F 93% 30.39 in 10.0 mi North 3.5 mph - N/A   Overcast
10:53 AM 46.9 °F - 45.0 °F 93% 30.38 in 10.0 mi Calm Calm - N/A   Overcast
11:53 AM 48.0 °F - 46.0 °F 93% 30.39 in 10.0 mi Calm Calm - N/A   Overcast
12:53 PM 48.9 °F - 46.9 °F 93% 30.39 in 3.0 mi Calm Calm - N/A   Overcast
1:40 PM 50.0 °F - 46.4 °F 87% 30.38 in 10.0 mi Calm Calm - N/A   Overcast
1:53 PM 48.9 °F - 46.9 °F 93% 30.39 in 10.0 mi Calm Calm - N/A   Overcast
2:53 PM 48.9 °F - 46.9 °F 93% 30.38 in 3.0 mi Calm Calm - 0.00 in Rain Light Rain
3:07 PM 48.2 °F - 46.4 °F 93% 30.37 in 2.0 mi Calm Calm - 0.01 in Rain Light Rain
3:17 PM 50.0 °F - 46.4 °F 87% 30.37 in 1.8 mi Calm Calm - 0.01 in Rain Light Rain
3:27 PM 50.0 °F - 46.4 °F 87% 30.38 in 2.5 mi Calm Calm - 0.01 in   Overcast
3:44 PM 48.2 °F - 48.2 °F 100% 30.37 in 2.5 mi Calm Calm - 0.02 in Rain Light Rain
3:53 PM 48.9 °F - 46.9 °F 93% 30.38 in 2.5 mi Calm Calm - 0.02 in   Overcast
4:34 PM 48.2 °F - 48.2 °F 100% 30.36 in 3.0 mi Calm Calm - N/A   Overcast
4:41 PM 48.2 °F - 48.2 °F 100% 30.35 in 3.0 mi Calm Calm - N/A   Overcast
4:53 PM 48.9 °F - 48.0 °F 97% 30.36 in 3.0 mi Calm Calm - N/A   Overcast
5:30 PM 48.2 °F - 46.4 °F 93% 30.35 in 5.0 mi Calm Calm - N/A   Overcast
5:53 PM 48.9 °F - 46.9 °F 93% 30.35 in 7.0 mi Calm Calm - N/A   Overcast
6:10 PM 48.2 °F - 46.4 °F 93% 30.34 in 2.0 mi Calm Calm - 0.01 in   Overcast
6:18 PM 48.2 °F - 46.4 °F 93% 30.34 in 1.5 mi Calm Calm - 0.01 in Rain Light Rain
6:53 PM 48.0 °F - 46.9 °F 96% 30.35 in 1.2 mi Calm Calm - 0.01 in   Overcast
7:06 PM 48.2 °F - 46.4 °F 93% 30.34 in 0.8 mi Calm Calm - N/A   Mist
7:14 PM 48.2 °F - 46.4 °F 93% 30.35 in 0.5 mi Calm Calm - N/A Fog Fog
7:24 PM 48.2 °F - 46.4 °F 93% 30.35 in 0.8 mi Calm Calm - N/A   Mist
7:33 PM 48.2 °F - 46.4 °F 93% 30.34 in 1.0 mi Calm Calm - N/A   Overcast
7:53 PM 48.0 °F - 46.9 °F 96% 30.35 in 1.5 mi Calm Calm - N/A   Overcast
8:00 PM 48.2 °F - 46.4 °F 93% 30.34 in 1.2 mi Calm Calm - N/A   Overcast
8:22 PM 46.4 °F - 46.4 °F 100% 30.34 in 0.8 mi Calm Calm - 0.01 in   Overcast
8:31 PM 46.4 °F - 46.4 °F 100% 30.33 in 0.5 mi Calm Calm - 0.01 in Fog Fog
8:38 PM 46.4 °F - 46.4 °F 100% 30.33 in 0.5 mi Calm Calm - 0.01 in Fog Fog
8:47 PM 46.4 °F - 46.4 °F 100% 30.33 in 1.0 mi Calm Calm - 0.01 in   Overcast
8:53 PM 46.9 °F - 46.0 °F 97% 30.33 in 1.5 mi Calm Calm - 0.01 in   Overcast
9:00 PM 46.4 °F - 46.4 °F 100% 30.33 in 3.0 mi Calm Calm - N/A   Overcast
9:29 PM 46.4 °F - 44.6 °F 93% 30.33 in 1.8 mi Calm Calm - N/A   Overcast
9:53 PM 46.9 °F - 45.0 °F 93% 30.33 in 0.8 mi Calm Calm - N/A   Overcast
10:07 PM 46.4 °F - 44.6 °F 93% 30.33 in 2.0 mi Calm Calm - N/A   Overcast
10:53 PM 44.1 °F - 43.0 °F 96% 30.32 in 2.5 mi Calm Calm - N/A   Partly Cloudy
11:09 PM 42.8 °F - 42.8 °F 100% 30.32 in 5.0 mi Calm Calm - N/A   Partly Cloudy
11:53 PM 42.1 °F - 41.0 °F 96% 30.32 in 5.0 mi Calm Calm - N/A   Mostly Cloudy